Back to catalog

FLOCK 4H 9

AliveScienceSSO
NORAD 66712·PAYLOAD·🇺🇸 United States

Launched Nov 28, 2025 from Vandenberg Space Force Base

Loading…

Next Passes (next 24 hours)

TLE

FreshSource: CelesTrak SupGP

Epoch: Sep 14, 2026, 12:45 UTC

1 66712C 25276AY  26257.53136574  .00008938  00000+0  39833-3 0  2573
2 66712  97.4143 329.9214 0004094  50.0011 233.3821 15.21486622    16

Track FLOCK 4H 9 in real time with AllMySat

Download on the App Store